User: anonymous   Login
Location: Unspecified
(0.0000°N, 0.0000°E)
Time: 06:40:54
(UTC+00:00)
Language:

POLYITAN 1 - Orbit

View from above orbital plane
View from above orbital plane
View from above satellite
View from above satellite

Ground track
Ground track

The orbit data is extracted from the following two-line orbital elements,

1 40042U 14033AJ  18173.71663628  .00000285  00000-0  36821-4 0  9999
2 40042  97.9129  89.2349 0015273 150.8164 209.3909 14.88406729217536
Epoch (UTC): 22 June 2018 17:11:57
Eccentricity: 0.0015273
inclination: 97.9129°
perigee height: 592 km
apogee height: 613 km
right ascension of ascending node: 89.2349°
argument of perigee: 150.8164°
revolutions per day: 14.88406729
mean anomaly at epoch: 209.3909°
orbit number at epoch: 21753

The dashed part of the orbit path shows where the satellite is in the earth's shadow,  

DLR